Terug naar catalogus

CSO 2

ActiefMilitairSSO
NORAD 47305·PAYLOAD·🇫🇷 France

Gelanceerd Dec 29, 2020 vanaf Guiana Space Centre

Loading…

Volgende Passages (komende 24 uur)

TLE

VerouderdSource: Mike McCants

Epoch: Aug 16, 2026, 01:52 UTC

1 47305U 20104A   26228.07801686 0.00000000  00000-0  00000-0 0    05
2 47305  97.3522 167.8652 0002125  70.0965 289.9033 15.26904832    05

Volg CSO 2 in realtime met AllMySat

Download on the App Store